Year,Month,Day,Hour,Minute,Value (Times are PST for barometer in hPa)
2006,11,15,00,06,1009.00
2006,11,15,00,07,1009.00
2006,11,15,00,08,1009.00
2006,11,15,00,09,1009.00
2006,11,15,00,10,1009.00
2006,11,15,00,11,1009.00
2006,11,15,00,12,1009.00
2006,11,15,00,13,1009.00
2006,11,15,00,14,1009.00
2006,11,15,00,15,1009.00
2006,11,15,00,16,1009.00
2006,11,15,00,17,1009.00
2006,11,15,00,18,1009.00
2006,11,15,00,19,1009.00
2006,11,15,00,20,1009.00
2006,11,15,00,21,1008.10
2006,11,15,00,22,1008.10
2006,11,15,00,23,1008.10
2006,11,15,00,24,1008.10
2006,11,15,00,25,1008.10
2006,11,15,00,26,1008.10
2006,11,15,00,27,1008.10
2006,11,15,00,28,1008.10
2006,11,15,00,29,1008.10
2006,11,15,00,30,1008.10
2006,11,15,00,31,1008.10
2006,11,15,00,32,1008.10
2006,11,15,00,33,1008.10
2006,11,15,00,34,1007.30
2006,11,15,00,35,1007.30
2006,11,15,00,36,1007.30
2006,11,15,00,37,1007.30
2006,11,15,00,38,1007.30
2006,11,15,00,39,1007.30
2006,11,15,00,40,1007.30
2006,11,15,00,41,1007.30
2006,11,15,00,42,1007.30
2006,11,15,00,43,1007.30
2006,11,15,00,44,1007.30
2006,11,15,00,46,1007.30
2006,11,15,00,47,1007.30
2006,11,15,00,48,1007.30
2006,11,15,00,49,1007.30
2006,11,15,00,50,1007.30
2006,11,15,00,51,1007.30
2006,11,15,00,52,1007.30
2006,11,15,00,53,1007.30
2006,11,15,00,54,1007.30
2006,11,15,00,55,1007.30
2006,11,15,00,56,1007.30
2006,11,15,00,57,1007.30
2006,11,15,00,58,1007.30
2006,11,15,00,59,1007.30
2006,11,15,01,00,1007.30
2006,11,15,01,01,1007.30
2006,11,15,01,02,1007.30
2006,11,15,01,03,1007.30
2006,11,15,01,04,1007.30
2006,11,15,01,05,1007.30
2006,11,15,01,06,1007.30
2006,11,15,01,08,1007.30
2006,11,15,01,10,1006.10
2006,11,15,01,11,1006.10
2006,11,15,01,12,1006.10
2006,11,15,01,13,1006.10
2006,11,15,01,14,1006.10
2006,11,15,01,15,1005.40
2006,11,15,01,16,1005.40
2006,11,15,01,17,1005.40
2006,11,15,01,18,1005.40
2006,11,15,01,19,1005.40
2006,11,15,01,20,1005.40
2006,11,15,01,21,1005.40
2006,11,15,01,22,1005.40
2006,11,15,01,23,1005.40
2006,11,15,01,25,1005.40
2006,11,15,01,26,1005.40
2006,11,15,01,27,1005.40
2006,11,15,01,28,1005.40
2006,11,15,01,29,1005.40
2006,11,15,01,30,1005.40
2006,11,15,01,31,1005.40
2006,11,15,01,32,1005.40
2006,11,15,01,33,1005.40
2006,11,15,01,34,1005.40
2006,11,15,01,35,1005.40
2006,11,15,01,36,1004.90
2006,11,15,01,37,1004.90
2006,11,15,01,38,1004.90
2006,11,15,01,40,1004.90
2006,11,15,01,41,1004.90
2006,11,15,01,43,1004.90
2006,11,15,01,44,1004.90
2006,11,15,01,46,1004.90
2006,11,15,01,47,1004.90
2006,11,15,01,48,1004.90
2006,11,15,01,49,1004.90
2006,11,15,01,50,1004.30
2006,11,15,01,51,1004.30
2006,11,15,01,52,1004.30
2006,11,15,01,54,1004.30
2006,11,15,01,55,1004.30
2006,11,15,01,56,1004.30
2006,11,15,01,57,1004.30
2006,11,15,01,58,1004.30
2006,11,15,01,59,1004.30
2006,11,15,02,00,1004.30
2006,11,15,02,01,1004.30
2006,11,15,02,02,1004.30
2006,11,15,02,03,1004.30
2006,11,15,02,04,1003.90
2006,11,15,02,05,1003.90
2006,11,15,02,07,1003.90
2006,11,15,02,08,1003.90
2006,11,15,02,09,1003.90
2006,11,15,02,10,1003.90
2006,11,15,02,11,1003.90
2006,11,15,02,12,1003.90
2006,11,15,02,13,1003.90
2006,11,15,02,14,1003.90
2006,11,15,02,16,1003.90
2006,11,15,02,17,1003.90
2006,11,15,02,19,1003.50
2006,11,15,02,20,1003.50
2006,11,15,02,21,1003.50
2006,11,15,02,22,1003.50
2006,11,15,02,23,1003.50
2006,11,15,02,24,1003.50
2006,11,15,02,25,1003.50
2006,11,15,02,27,1003.50
2006,11,15,02,28,1003.50
2006,11,15,02,29,1003.50
2006,11,15,02,30,1003.50
2006,11,15,02,31,1003.50
2006,11,15,02,32,1003.50
2006,11,15,02,33,1003.30
2006,11,15,02,35,1003.30
2006,11,15,02,36,1003.30
2006,11,15,02,37,1003.30
2006,11,15,02,38,1003.30
2006,11,15,02,40,1003.30
2006,11,15,02,41,1003.30
2006,11,15,02,42,1003.30
2006,11,15,02,44,1003.30
2006,11,15,02,45,1003.30
2006,11,15,02,47,1002.70
2006,11,15,02,48,1002.70
2006,11,15,02,49,1002.70
2006,11,15,02,50,1002.70
2006,11,15,02,51,1002.70
2006,11,15,02,52,1002.70
2006,11,15,02,54,1002.70
2006,11,15,02,56,1002.70
2006,11,15,02,58,1002.70
2006,11,15,03,00,1002.70
2006,11,15,03,01,1002.70
2006,11,15,03,02,1002.50
2006,11,15,03,03,1002.50
2006,11,15,03,04,1002.50
2006,11,15,03,05,1002.50
2006,11,15,03,06,1002.50
2006,11,15,03,07,1002.50
2006,11,15,03,09,1002.50
2006,11,15,03,11,1002.50
2006,11,15,03,12,1002.50
2006,11,15,03,13,1002.50
2006,11,15,03,14,1002.50
2006,11,15,03,16,1002.10
2006,11,15,03,17,1002.10
2006,11,15,03,18,1002.10
2006,11,15,03,20,1002.10
2006,11,15,03,21,1002.10
2006,11,15,03,22,1002.10
2006,11,15,03,23,1002.10
2006,11,15,03,24,1002.10
2006,11,15,03,25,1002.10
2006,11,15,03,27,1002.10
2006,11,15,03,28,1002.10
2006,11,15,03,29,1002.10
2006,11,15,03,31,1001.20
2006,11,15,03,32,1001.20
2006,11,15,03,33,1001.20
2006,11,15,03,34,1001.20
2006,11,15,03,35,1001.20
2006,11,15,03,36,1001.20
2006,11,15,03,37,1001.20
2006,11,15,03,38,1001.20
2006,11,15,03,39,1001.20
2006,11,15,03,41,1001.20
2006,11,15,03,42,1001.20
2006,11,15,03,43,1001.20
2006,11,15,03,44,1001.20
2006,11,15,03,45,1000.70
2006,11,15,03,46,1000.70
2006,11,15,03,48,1000.70
2006,11,15,03,49,1000.70
2006,11,15,03,50,1000.70
2006,11,15,03,51,1000.70
2006,11,15,03,52,1000.70
2006,11,15,03,53,1000.70
2006,11,15,03,54,1000.70
2006,11,15,03,55,1000.70
2006,11,15,03,56,1000.70
2006,11,15,03,57,1000.70
2006,11,15,03,59,1000.70
2006,11,15,04,00,1000.70
2006,11,15,04,01,1000.70
2006,11,15,04,02,1000.70
2006,11,15,04,03,1000.70
2006,11,15,04,05,1000.70
2006,11,15,04,06,1000.70
2006,11,15,04,07,1000.70
2006,11,15,04,08,1000.70
2006,11,15,04,09,1000.70
2006,11,15,04,10,1000.70
2006,11,15,04,11,1000.70
2006,11,15,04,13,1000.70
2006,11,15,04,14,1000.70
2006,11,15,04,15,1000.70
2006,11,15,04,16,1000.70
2006,11,15,04,17,1000.70
2006,11,15,04,18,1000.70
2006,11,15,04,20,1000.70
2006,11,15,04,21,1000.10
2006,11,15,04,22,1000.10
2006,11,15,04,23,1000.10
2006,11,15,04,25,1000.10
2006,11,15,04,26,1000.10
2006,11,15,04,29,1000.10
2006,11,15,04,30,1000.10
2006,11,15,04,31,1000.10
2006,11,15,04,32,1000.10
2006,11,15,04,33,1000.10
2006,11,15,04,34,1000.10
2006,11,15,04,35,999.30
2006,11,15,04,36,999.30
2006,11,15,04,37,999.30
2006,11,15,04,38,999.30
2006,11,15,04,39,999.30
2006,11,15,04,40,999.30
2006,11,15,04,41,999.30
2006,11,15,04,42,999.30
2006,11,15,04,44,999.30
2006,11,15,04,45,999.30
2006,11,15,04,46,999.30
2006,11,15,04,47,999.30
2006,11,15,04,49,999.40
2006,11,15,04,51,999.40
2006,11,15,04,52,999.40
2006,11,15,04,54,999.40
2006,11,15,04,56,999.40
2006,11,15,04,57,999.40
2006,11,15,04,58,999.40
2006,11,15,04,59,999.40
2006,11,15,05,00,999.40
2006,11,15,05,01,999.40
2006,11,15,05,02,999.40
2006,11,15,05,03,998.60
2006,11,15,05,04,998.60
2006,11,15,05,06,998.60
2006,11,15,05,07,998.60
2006,11,15,05,08,998.60
2006,11,15,05,09,998.60
2006,11,15,05,10,998.60
2006,11,15,05,11,998.60
2006,11,15,05,12,998.60
2006,11,15,05,13,998.60
2006,11,15,05,15,998.60
2006,11,15,05,16,998.60
2006,11,15,05,17,998.60
2006,11,15,05,18,998.60
2006,11,15,05,19,998.60
2006,11,15,05,21,998.60
2006,11,15,05,22,998.60
2006,11,15,05,24,998.60
2006,11,15,05,25,998.60
2006,11,15,05,27,998.60
2006,11,15,05,28,998.60
2006,11,15,05,29,998.60
2006,11,15,05,30,998.60
2006,11,15,05,31,998.60
2006,11,15,05,32,998.30
2006,11,15,05,33,998.30
2006,11,15,05,34,998.30
2006,11,15,05,35,998.30
2006,11,15,05,36,998.30
2006,11,15,05,37,998.30
2006,11,15,05,40,998.30
2006,11,15,05,41,998.30
2006,11,15,05,42,998.30
2006,11,15,05,43,998.30
2006,11,15,05,44,998.30
2006,11,15,05,45,998.30
2006,11,15,05,46,998.10
2006,11,15,05,47,998.10
2006,11,15,05,48,998.10
2006,11,15,05,49,998.10
2006,11,15,05,50,998.10
2006,11,15,05,51,998.10
2006,11,15,05,52,998.10
2006,11,15,05,53,998.10
2006,11,15,05,55,998.10
2006,11,15,05,56,998.10
2006,11,15,05,57,998.10
2006,11,15,05,58,998.10
2006,11,15,05,59,998.10
2006,11,15,06,00,998.10
2006,11,15,06,01,998.10
2006,11,15,06,02,998.10
2006,11,15,06,03,998.10
2006,11,15,06,04,998.10
2006,11,15,06,05,998.10
2006,11,15,06,07,998.10
2006,11,15,06,08,998.10
2006,11,15,06,09,998.10
2006,11,15,06,11,998.10
2006,11,15,06,12,998.10
2006,11,15,06,13,998.10
2006,11,15,06,14,998.10
2006,11,15,06,15,997.50
2006,11,15,06,16,997.50
2006,11,15,06,17,997.50
2006,11,15,06,18,997.50
2006,11,15,06,20,997.50
2006,11,15,06,21,997.50
2006,11,15,06,22,997.50
2006,11,15,06,23,997.50
2006,11,15,06,25,997.50
2006,11,15,06,26,997.50
2006,11,15,06,27,997.50
2006,11,15,06,29,997.50
2006,11,15,06,30,997.00
2006,11,15,06,31,997.00
2006,11,15,06,32,997.00
2006,11,15,06,33,997.00
2006,11,15,06,34,997.00
2006,11,15,06,35,997.00
2006,11,15,06,36,997.00
2006,11,15,06,37,997.00
2006,11,15,06,38,997.00
2006,11,15,06,39,997.00
2006,11,15,06,41,997.00
2006,11,15,06,42,997.00
2006,11,15,06,43,997.00
2006,11,15,06,44,997.00
2006,11,15,06,46,997.00
2006,11,15,06,47,997.00
2006,11,15,06,48,997.00
2006,11,15,06,49,997.00
2006,11,15,06,51,996.50
2006,11,15,06,52,996.50
2006,11,15,06,54,996.50
2006,11,15,06,55,996.50
2006,11,15,06,56,996.50
2006,11,15,06,58,996.50
2006,11,15,06,59,996.50
2006,11,15,07,00,996.50
2006,11,15,07,01,996.50
2006,11,15,07,02,996.50
2006,11,15,07,03,996.50
2006,11,15,07,04,996.50
2006,11,15,07,05,996.40
2006,11,15,07,07,996.40
2006,11,15,07,08,996.40
2006,11,15,07,09,996.40
2006,11,15,07,10,996.40
2006,11,15,07,11,996.40
2006,11,15,07,12,996.40
2006,11,15,07,13,996.40
2006,11,15,07,14,996.40
2006,11,15,07,15,996.40
2006,11,15,07,16,996.40
2006,11,15,07,17,996.40
2006,11,15,07,18,996.40
2006,11,15,07,19,996.40
2006,11,15,07,20,996.40
2006,11,15,07,21,996.10
2006,11,15,07,22,996.10
2006,11,15,07,23,996.10
2006,11,15,07,24,996.10
2006,11,15,07,25,996.10
2006,11,15,07,26,996.10
2006,11,15,07,27,996.10
2006,11,15,07,28,996.10
2006,11,15,07,29,996.10
2006,11,15,07,30,996.10
2006,11,15,07,31,996.10
2006,11,15,07,32,996.10
2006,11,15,07,33,996.10
2006,11,15,07,34,995.60
2006,11,15,07,35,995.60
2006,11,15,07,37,995.60
2006,11,15,07,39,995.60
2006,11,15,07,40,995.60
2006,11,15,07,41,995.60
2006,11,15,07,43,995.60
2006,11,15,07,44,995.60
2006,11,15,07,45,995.60
2006,11,15,07,46,995.60
2006,11,15,07,47,995.60
2006,11,15,07,48,995.60
2006,11,15,07,50,995.20
2006,11,15,07,51,995.20
2006,11,15,07,52,995.20
2006,11,15,07,53,995.20
2006,11,15,07,54,995.20
2006,11,15,07,55,995.20
2006,11,15,07,56,995.20
2006,11,15,07,57,995.20
2006,11,15,07,58,995.20
2006,11,15,07,59,995.20
2006,11,15,08,00,995.20
2006,11,15,08,01,995.20
2006,11,15,08,02,995.20
2006,11,15,08,03,994.80
2006,11,15,08,04,994.80
2006,11,15,08,05,994.80
2006,11,15,08,06,994.80
2006,11,15,08,07,994.80
2006,11,15,08,08,994.80
2006,11,15,08,09,994.80
2006,11,15,08,10,994.80
2006,11,15,08,11,994.80
2006,11,15,08,12,994.80
2006,11,15,08,13,994.80
2006,11,15,08,14,994.80
2006,11,15,08,15,994.80
2006,11,15,08,17,994.80
2006,11,15,08,18,994.40
2006,11,15,08,19,994.40
2006,11,15,08,20,994.40
2006,11,15,08,21,994.40
2006,11,15,08,22,994.40
2006,11,15,08,23,994.40
2006,11,15,08,24,994.40
2006,11,15,08,25,994.40
2006,11,15,08,26,994.40
2006,11,15,08,27,994.40
2006,11,15,08,28,994.40
2006,11,15,08,29,994.40
2006,11,15,08,30,994.40
2006,11,15,08,31,994.40
2006,11,15,08,32,994.30
2006,11,15,08,34,994.30
2006,11,15,08,35,994.30
2006,11,15,08,37,994.30
2006,11,15,08,39,994.30
2006,11,15,08,41,994.30
2006,11,15,08,42,994.30
2006,11,15,08,43,994.30
2006,11,15,08,44,994.30
2006,11,15,08,45,994.30
2006,11,15,08,46,993.50
2006,11,15,08,47,993.50
2006,11,15,08,48,993.50
2006,11,15,08,49,993.50
2006,11,15,08,50,993.50
2006,11,15,08,51,993.50
2006,11,15,08,52,993.50
2006,11,15,08,53,993.50
2006,11,15,08,54,993.50
2006,11,15,08,55,993.50
2006,11,15,08,57,993.50
2006,11,15,08,58,993.50
2006,11,15,08,59,993.50
2006,11,15,09,01,993.90
2006,11,15,09,02,993.90
2006,11,15,09,03,993.90
2006,11,15,09,04,993.90
2006,11,15,09,06,993.90
2006,11,15,09,07,993.90
2006,11,15,09,08,993.90
2006,11,15,09,09,993.90
2006,11,15,09,10,993.90
2006,11,15,09,11,993.90
2006,11,15,09,12,993.90
2006,11,15,09,14,993.90
2006,11,15,09,15,993.60
2006,11,15,09,16,993.60
2006,11,15,09,17,993.60
2006,11,15,09,18,993.60
2006,11,15,09,20,993.60
2006,11,15,09,21,993.60
2006,11,15,09,22,993.60
2006,11,15,09,23,993.60
2006,11,15,09,24,993.60
2006,11,15,09,25,993.60
2006,11,15,09,26,993.60
2006,11,15,09,27,993.60
2006,11,15,09,28,993.60
2006,11,15,09,29,992.40
2006,11,15,09,31,992.40
2006,11,15,09,32,992.40
2006,11,15,09,33,992.40
2006,11,15,09,34,992.40
2006,11,15,09,35,992.40
2006,11,15,09,36,992.40
2006,11,15,09,37,992.40
2006,11,15,09,38,992.40
2006,11,15,09,40,992.40
2006,11,15,09,41,992.40
2006,11,15,09,43,992.40
2006,11,15,09,45,992.40
2006,11,15,09,46,992.40
2006,11,15,09,47,992.40
2006,11,15,09,48,992.40
2006,11,15,09,49,992.40
2006,11,15,09,51,992.30
2006,11,15,09,52,992.30
2006,11,15,09,53,992.30
2006,11,15,09,54,992.30
2006,11,15,09,56,992.30
2006,11,15,09,57,992.30
2006,11,15,09,58,992.30
2006,11,15,09,59,992.30
2006,11,15,10,01,992.30
2006,11,15,10,02,992.30
2006,11,15,10,03,992.30
2006,11,15,10,05,992.30
2006,11,15,10,06,991.10
2006,11,15,10,07,991.10
2006,11,15,10,08,991.10
2006,11,15,10,10,991.10
2006,11,15,10,11,991.10
2006,11,15,10,12,991.10
2006,11,15,10,13,991.10
2006,11,15,10,14,991.10
2006,11,15,10,15,991.10
2006,11,15,10,16,991.10
2006,11,15,10,17,991.10
2006,11,15,10,19,991.10
2006,11,15,10,21,990.30
2006,11,15,10,22,990.30
2006,11,15,10,24,990.30
2006,11,15,10,25,990.30
2006,11,15,10,26,990.30
2006,11,15,10,27,990.30
2006,11,15,10,28,990.30
2006,11,15,10,29,990.30
2006,11,15,10,31,990.30
2006,11,15,10,32,990.30
2006,11,15,10,33,990.30
2006,11,15,10,35,989.70
2006,11,15,10,36,989.70
2006,11,15,10,37,989.70
2006,11,15,10,38,989.70
2006,11,15,10,40,989.70
2006,11,15,10,41,989.70
2006,11,15,10,42,989.70
2006,11,15,10,43,989.70
2006,11,15,10,44,989.70
2006,11,15,10,45,989.70
2006,11,15,10,46,989.70
2006,11,15,10,47,989.70
2006,11,15,10,48,989.70
2006,11,15,10,49,990.30
2006,11,15,10,50,990.30
2006,11,15,10,51,990.30
2006,11,15,10,52,990.30
2006,11,15,10,53,990.30
2006,11,15,10,54,990.30
2006,11,15,10,56,990.30
2006,11,15,10,58,990.30
2006,11,15,10,59,990.30
2006,11,15,11,01,990.30
2006,11,15,11,02,990.30
2006,11,15,11,03,989.70
2006,11,15,11,04,989.70
2006,11,15,11,05,989.70
2006,11,15,11,07,989.70
2006,11,15,11,09,989.70
2006,11,15,11,11,989.70
2006,11,15,11,13,989.70
2006,11,15,11,14,989.70
2006,11,15,11,15,989.70
2006,11,15,11,16,989.70
2006,11,15,11,17,989.70
2006,11,15,11,18,989.20
2006,11,15,11,20,989.20
2006,11,15,11,21,989.20
2006,11,15,11,22,989.20
2006,11,15,11,23,989.20
2006,11,15,11,24,989.20
2006,11,15,11,26,989.20
2006,11,15,11,27,989.20
2006,11,15,11,28,989.20
2006,11,15,11,29,989.20
2006,11,15,11,31,989.20
2006,11,15,11,32,989.10
2006,11,15,11,33,989.10
2006,11,15,11,34,989.10
2006,11,15,11,35,989.10
2006,11,15,11,36,989.10
2006,11,15,11,37,989.10
2006,11,15,11,38,989.10
2006,11,15,11,39,989.10
2006,11,15,11,40,989.10
2006,11,15,11,41,989.10
2006,11,15,11,42,989.10
2006,11,15,11,44,989.10
2006,11,15,11,45,989.10
2006,11,15,11,46,987.60
2006,11,15,11,47,987.60
2006,11,15,11,49,987.60
2006,11,15,11,50,987.60
2006,11,15,11,51,987.60
2006,11,15,11,52,987.60
2006,11,15,11,53,987.60
2006,11,15,11,54,987.60
2006,11,15,11,55,987.60
2006,11,15,11,56,987.60
2006,11,15,11,57,987.60
2006,11,15,11,58,987.60
2006,11,15,11,59,987.60
2006,11,15,12,00,987.60
2006,11,15,12,01,987.60
2006,11,15,12,02,987.60
2006,11,15,12,03,987.60
2006,11,15,12,04,987.60
2006,11,15,12,05,987.60
2006,11,15,12,06,987.60
2006,11,15,12,08,988.30
2006,11,15,12,09,988.30
2006,11,15,12,11,988.30
2006,11,15,12,12,988.30
2006,11,15,12,13,988.30
2006,11,15,12,14,988.30
2006,11,15,12,16,988.30
2006,11,15,12,18,988.30
2006,11,15,12,19,988.30
2006,11,15,12,20,988.30
2006,11,15,12,21,988.30
2006,11,15,12,22,987.70
2006,11,15,12,23,987.70
2006,11,15,12,25,987.70
2006,11,15,12,26,987.70
2006,11,15,12,27,987.70
2006,11,15,12,29,987.70
2006,11,15,12,31,986.70
2006,11,15,12,32,986.70
2006,11,15,12,33,986.70
2006,11,15,12,35,986.70
2006,11,15,12,36,986.70
2006,11,15,12,37,986.70
2006,11,15,12,38,986.70
2006,11,15,12,39,986.70
2006,11,15,12,40,986.70
2006,11,15,12,41,986.70
2006,11,15,12,42,986.70
2006,11,15,12,43,986.70
2006,11,15,12,44,986.70
2006,11,15,12,45,986.70
2006,11,15,12,46,986.70
2006,11,15,12,47,986.70
2006,11,15,12,48,986.70
2006,11,15,12,49,986.70
2006,11,15,12,51,986.70
2006,11,15,12,52,986.70
2006,11,15,12,53,986.70
2006,11,15,12,54,986.70
2006,11,15,12,55,986.70
2006,11,15,12,56,986.70
2006,11,15,12,57,986.70
2006,11,15,12,59,986.70
2006,11,15,13,00,986.70
2006,11,15,13,01,986.70
2006,11,15,13,02,986.70
2006,11,15,13,03,986.70
2006,11,15,13,04,986.70
2006,11,15,13,06,986.70
2006,11,15,13,07,986.70
2006,11,15,13,08,986.70
2006,11,15,13,09,986.70
2006,11,15,13,11,986.70
2006,11,15,13,12,986.70
2006,11,15,13,13,986.70
2006,11,15,13,15,986.70
2006,11,15,13,16,986.70
2006,11,15,13,18,986.70
2006,11,15,13,20,986.70
2006,11,15,13,21,985.60
2006,11,15,13,22,985.60
2006,11,15,13,23,985.60
2006,11,15,13,24,985.60
2006,11,15,13,25,985.60
2006,11,15,13,26,985.60
2006,11,15,13,27,985.60
2006,11,15,13,28,985.60
2006,11,15,13,29,985.60
2006,11,15,13,30,985.60
2006,11,15,13,31,985.60
2006,11,15,13,32,985.60
2006,11,15,13,33,985.60
2006,11,15,13,34,985.60
2006,11,15,13,35,985.60
2006,11,15,13,36,985.60
2006,11,15,13,37,985.60
2006,11,15,13,38,985.60
2006,11,15,13,39,985.60
2006,11,15,13,40,985.60
2006,11,15,13,41,985.60
2006,11,15,13,43,986.10
2006,11,15,13,44,986.10
2006,11,15,13,45,986.10
2006,11,15,13,46,986.10
2006,11,15,13,47,986.10
2006,11,15,13,48,986.10
2006,11,15,13,51,985.70
2006,11,15,13,53,985.70
2006,11,15,13,55,985.70
2006,11,15,13,56,985.70
2006,11,15,13,58,985.70
2006,11,15,13,59,985.70
2006,11,15,14,00,985.70
2006,11,15,14,01,985.70
2006,11,15,14,02,985.70
2006,11,15,14,03,985.70
2006,11,15,14,04,984.90
2006,11,15,14,05,984.90
2006,11,15,14,06,984.90
2006,11,15,14,07,984.90
2006,11,15,14,08,984.90
2006,11,15,14,09,984.90
2006,11,15,14,10,984.90
2006,11,15,14,11,984.90
2006,11,15,14,12,984.90
2006,11,15,14,14,984.90
2006,11,15,14,15,984.90
2006,11,15,14,16,984.90
2006,11,15,14,18,984.90
2006,11,15,14,19,984.70
2006,11,15,14,20,984.70
2006,11,15,14,21,984.70
2006,11,15,14,23,984.70
2006,11,15,14,24,984.70
2006,11,15,14,25,984.70
2006,11,15,14,26,984.70
2006,11,15,14,27,984.70
2006,11,15,14,28,984.70
2006,11,15,14,29,984.70
2006,11,15,14,31,984.70
2006,11,15,14,32,984.70
2006,11,15,14,33,984.50
2006,11,15,14,34,984.50
2006,11,15,14,36,984.50
2006,11,15,14,37,984.50
2006,11,15,14,38,984.50
2006,11,15,14,39,984.50
2006,11,15,14,40,984.50
2006,11,15,14,41,984.50
2006,11,15,14,42,984.50
2006,11,15,14,44,984.50
2006,11,15,14,45,984.50
2006,11,15,14,46,984.50
2006,11,15,14,48,984.60
2006,11,15,14,50,984.60
2006,11,15,14,51,984.60
2006,11,15,14,52,984.60
2006,11,15,14,53,984.60
2006,11,15,14,54,984.60
2006,11,15,14,55,984.60
2006,11,15,14,56,984.60
2006,11,15,14,57,984.60
2006,11,15,14,59,984.60
2006,11,15,15,01,984.60
2006,11,15,15,02,984.60
2006,11,15,15,03,984.60
2006,11,15,15,04,984.60
2006,11,15,15,05,984.60
2006,11,15,15,07,984.60
2006,11,15,15,09,984.60
2006,11,15,15,11,984.60
2006,11,15,15,12,984.60
2006,11,15,15,14,984.60
2006,11,15,15,15,984.60
2006,11,15,15,16,983.30
2006,11,15,15,18,983.30
2006,11,15,15,19,983.30
2006,11,15,15,21,983.30
2006,11,15,15,22,983.30
2006,11,15,15,23,983.30
2006,11,15,15,25,983.30
2006,11,15,15,26,983.30
2006,11,15,15,27,983.30
2006,11,15,15,28,983.30
2006,11,15,15,29,983.30
2006,11,15,15,30,983.30
2006,11,15,15,31,983.30
2006,11,15,15,32,983.00
2006,11,15,15,33,983.00
2006,11,15,15,34,983.00
2006,11,15,15,35,983.00
2006,11,15,15,36,983.00
2006,11,15,15,38,983.00
2006,11,15,15,40,983.00
2006,11,15,15,41,983.00
2006,11,15,15,42,983.00
2006,11,15,15,43,983.00
2006,11,15,15,45,983.60
2006,11,15,15,47,983.60
2006,11,15,15,48,983.60
2006,11,15,15,49,983.60
2006,11,15,15,51,983.60
2006,11,15,15,52,983.60
2006,11,15,15,53,983.60
2006,11,15,15,54,983.60
2006,11,15,15,55,983.60
2006,11,15,15,57,983.60
2006,11,15,15,58,983.60
2006,11,15,15,59,983.60
2006,11,15,16,01,983.60
2006,11,15,16,02,983.60
2006,11,15,16,03,983.60
2006,11,15,16,04,983.60
2006,11,15,16,05,983.60
2006,11,15,16,06,983.60
2006,11,15,16,07,983.60
2006,11,15,16,08,984.00
2006,11,15,16,09,984.00
2006,11,15,16,11,984.00
2006,11,15,16,12,984.00
2006,11,15,16,13,984.00
2006,11,15,16,15,984.00
2006,11,15,16,16,984.00
2006,11,15,16,17,984.00
2006,11,15,16,18,984.00
2006,11,15,16,19,984.00
2006,11,15,16,20,984.00
2006,11,15,16,21,984.10
2006,11,15,16,22,984.10
2006,11,15,16,23,984.10
2006,11,15,16,24,984.10
2006,11,15,16,25,984.10
2006,11,15,16,26,984.10
2006,11,15,16,27,984.10
2006,11,15,16,28,984.10
2006,11,15,16,30,984.10
2006,11,15,16,32,984.10
2006,11,15,16,33,984.10
2006,11,15,16,34,984.10
2006,11,15,16,35,984.70
2006,11,15,16,36,984.70
2006,11,15,16,37,984.70
2006,11,15,16,38,984.70
2006,11,15,16,40,984.70
2006,11,15,16,41,984.70
2006,11,15,16,42,984.70
2006,11,15,16,43,984.70
2006,11,15,16,44,984.70
2006,11,15,16,45,984.70
2006,11,15,16,46,984.70
2006,11,15,16,48,984.70
2006,11,15,16,51,985.70
2006,11,15,16,52,985.70
2006,11,15,16,54,985.70
2006,11,15,16,55,985.70
2006,11,15,16,56,985.70
2006,11,15,16,58,985.70
2006,11,15,16,59,985.70
2006,11,15,17,00,985.70
2006,11,15,17,02,985.70
2006,11,15,17,03,985.70
2006,11,15,17,05,986.50
2006,11,15,17,06,986.50
2006,11,15,17,07,986.50
2006,11,15,17,08,986.50
2006,11,15,17,09,986.50
2006,11,15,17,11,986.50
2006,11,15,17,12,986.50
2006,11,15,17,13,986.50
2006,11,15,17,14,986.50
2006,11,15,17,16,986.50
2006,11,15,17,17,986.50
2006,11,15,17,18,986.50
2006,11,15,17,19,986.50
2006,11,15,17,20,987.30
2006,11,15,17,21,987.30
2006,11,15,17,22,987.30
2006,11,15,17,24,987.30
2006,11,15,17,25,987.30
2006,11,15,17,26,987.30
2006,11,15,17,27,987.30
2006,11,15,17,29,987.30
2006,11,15,17,30,987.30
2006,11,15,17,31,987.30
2006,11,15,17,32,987.30
2006,11,15,17,33,988.20
2006,11,15,17,34,988.20
2006,11,15,17,36,988.20
2006,11,15,17,37,988.20
2006,11,15,17,38,988.20
2006,11,15,17,39,988.20
2006,11,15,17,40,988.20
2006,11,15,17,41,988.20
2006,11,15,17,42,988.20
2006,11,15,17,44,988.20
2006,11,15,17,45,988.20
2006,11,15,17,47,988.90
2006,11,15,17,48,988.90
2006,11,15,17,49,988.90
2006,11,15,17,51,988.90
2006,11,15,17,52,988.90
2006,11,15,17,53,988.90
2006,11,15,17,54,988.90
2006,11,15,17,56,988.90
2006,11,15,17,57,988.90
2006,11,15,17,59,988.90
2006,11,15,18,01,988.90
2006,11,15,18,02,989.70
2006,11,15,18,03,989.70
2006,11,15,18,04,989.70
2006,11,15,18,05,989.70
2006,11,15,18,06,989.70
2006,11,15,18,07,989.70
2006,11,15,18,08,989.70
2006,11,15,18,09,989.70
2006,11,15,18,10,989.70
2006,11,15,18,11,989.70
2006,11,15,18,12,989.70
2006,11,15,18,13,989.70
2006,11,15,18,14,989.70
2006,11,15,18,15,989.70
2006,11,15,18,16,990.30
2006,11,15,18,17,990.30
2006,11,15,18,18,990.30
2006,11,15,18,19,990.30
2006,11,15,18,20,990.30
2006,11,15,18,21,990.30
2006,11,15,18,22,990.30
2006,11,15,18,23,990.30
2006,11,15,18,24,990.30
2006,11,15,18,25,990.30
2006,11,15,18,26,990.30
2006,11,15,18,27,990.30
2006,11,15,18,28,990.30
2006,11,15,18,29,990.30
2006,11,15,18,30,990.30
2006,11,15,18,31,990.30
2006,11,15,18,32,991.40
2006,11,15,18,33,991.40
2006,11,15,18,34,991.40
2006,11,15,18,36,991.40
2006,11,15,18,39,991.40
2006,11,15,18,40,991.40
2006,11,15,18,41,991.40
2006,11,15,18,42,991.40
2006,11,15,18,43,991.40
2006,11,15,18,45,992.10
2006,11,15,18,46,992.10
2006,11,15,18,47,992.10
2006,11,15,18,48,992.10
2006,11,15,18,50,992.10
2006,11,15,18,51,992.10
2006,11,15,18,52,992.10
2006,11,15,18,53,992.10
2006,11,15,18,54,992.10
2006,11,15,18,55,992.10
2006,11,15,18,56,992.10
2006,11,15,18,58,992.10
2006,11,15,18,59,992.10
2006,11,15,19,00,992.10
2006,11,15,19,01,992.10
2006,11,15,19,02,992.10
2006,11,15,19,03,992.10
2006,11,15,19,04,992.10
2006,11,15,19,05,992.10
2006,11,15,19,06,992.10
2006,11,15,19,07,992.10
2006,11,15,19,08,992.60
2006,11,15,19,09,992.60
2006,11,15,19,10,992.60
2006,11,15,19,11,992.60
2006,11,15,19,12,992.60
2006,11,15,19,13,992.60
2006,11,15,19,14,992.60
2006,11,15,19,15,992.60
2006,11,15,19,17,992.60
2006,11,15,19,19,992.60
2006,11,15,19,20,992.60
2006,11,15,19,21,993.40
2006,11,15,19,22,993.40
2006,11,15,19,24,993.40
2006,11,15,19,25,993.40
2006,11,15,19,26,993.40
2006,11,15,19,27,993.40
2006,11,15,19,28,993.40
2006,11,15,19,30,993.40